{"data":{"norad_id":69006,"epoch":"2026-05-25T04:34:44.801184Z","epoch_age_seconds":72661,"freshness":"FRESH","line1":"1 69006U 26100AC  26145.19079631  .00004746  00000+0  22363-3 0  9993","line2":"2 69006  97.4074  43.4199 0006054  89.8121 270.3808 15.19970467  3312","mean_motion":15.19970467,"eccentricity":0.0006054,"inclination_deg":97.4074,"raan_deg":43.4199,"arg_perigee_deg":89.8121,"mean_anomaly_deg":270.3808,"bstar":0.00022363,"rev_number":331,"period_min":94.738682840474,"perigee_km":501.76216979998,"apogee_km":510.09739786184,"semimajor_km":6884.0667838309,"source":"CELESTRAK","updated_at":"2026-05-25T13:38:09.038256Z"}}